| time (UTC) | temp F | wind direction | speed knots | gust knots | rain 1hr in | rain 24hr in | rain mn in | humidity % | barometer mb |
| 20260906172535 | 71 | 355 | 3.5 | 7.0 | 0.00 | 0.00 | 0.00 | 31 | 1020.5 |
| 20260906172030 | 71 | 17 | 2.6 | 7.8 | 0.00 | 0.00 | 0.00 | 31 | 1020.5 |
| 20260906171530 | 71 | 90 | 3.5 | 7.8 | 0.00 | 0.00 | 0.00 | 31 | 1020.6 |
| 20260906171032 | 71 | 350 | 2.6 | 7.8 | 0.00 | 0.00 | 0.00 | 31 | 1020.6 |
| 20260906170528 | 70 | 17 | 0.9 | 6.1 | 0.00 | 0.00 | 0.00 | 32 | 1020.7 |
| 20260906170028 | 70 | 35 | 1.7 | 5.2 | 0.00 | 0.00 | 0.00 | 32 | 1020.7 |
| 20260906165527 | 70 | 50 | 1.7 | 5.2 | 0.00 | 0.00 | 0.00 | 33 | 1020.7 |
| 20260906165029 | 69 | 52 | 2.6 | 5.2 | 0.00 | 0.00 | 0.00 | 34 | 1020.7 |
| 20260906164525 | 69 | 43 | 2.6 | 5.2 | 0.00 | 0.00 | 0.00 | 34 | 1020.8 |
| 20260906164024 | 68 | 41 | 0.9 | 3.5 | 0.00 | 0.00 | 0.00 | 35 | 1020.8 |
| 20260906163521 | 68 | 68 | 1.7 | 3.5 | 0.00 | 0.00 | 0.00 | 37 | 1020.9 |
| 20260906163021 | 67 | 68 | 0.0 | 3.5 | 0.00 | 0.00 | 0.00 | 37 | 1020.9 |
| 20260906162521 | 66 | 78 | 0.9 | 3.5 | 0.00 | 0.00 | 0.00 | 38 | 1021.0 |
| 20260906162020 | 66 | 355 | 1.7 | 2.6 | 0.00 | 0.00 | 0.00 | 40 | 1021.0 |
| 20260906161535 | 65 | 35 | 0.0 | 2.6 | 0.00 | 0.00 | 0.00 | 42 | 1021.1 |
| 20260906161017 | 65 | 312 | 0.0 | 2.6 | 0.00 | 0.00 | 0.00 | 40 | 1021.2 |
| 20260906160516 | 65 | 44 | 1.7 | 2.6 | 0.00 | 0.00 | 0.00 | 41 | 1021.2 |
| 20260906160015 | 64 | 9 | 0.9 | 3.5 | 0.00 | 0.00 | 0.00 | 42 | 1021.3 |
| 20260906155514 | 63 | 5 | 0.9 | 3.5 | 0.00 | 0.00 | 0.00 | 44 | 1021.3 |
| 20260906155014 | 62 | 5 | 0.0 | 2.6 | 0.00 | 0.00 | 0.00 | 45 | 1021.4 |
| 20260906154514 | 63 | 315 | 0.0 | 2.6 | 0.00 | 0.00 | 0.00 | 44 | 1021.5 |
| 20260906154013 | 63 | 49 | 0.9 | 2.6 | 0.00 | 0.00 | 0.00 | 44 | 1021.6 |
| 20260906153511 | 62 | 355 | 0.9 | 2.6 | 0.00 | 0.00 | 0.00 | 45 | 1021.6 |
| 20260906153011 | 62 | 28 | 0.9 | 2.6 | 0.00 | 0.00 | 0.00 | 46 | 1021.6 |
| 20260906152509 | 62 | 52 | 0.0 | 2.6 | 0.00 | 0.00 | 0.00 | 48 | 1021.7 |
| 20260906152009 | 61 | 12 | 0.0 | 2.6 | 0.00 | 0.00 | 0.00 | 49 | 1021.7 |
| 20260906151509 | 61 | 44 | 0.9 | 2.6 | 0.00 | 0.00 | 0.00 | 49 | 1021.7 |
| 20260906151009 | 60 | 10 | 0.9 | 3.5 | 0.00 | 0.00 | 0.00 | 50 | 1021.7 |
| 20260906150507 | 60 | 355 | 0.9 | 3.5 | 0.00 | 0.00 | 0.00 | 50 | 1021.7 |
| 20260906150006 | 59 | 355 | 1.7 | 2.6 | 0.00 | 0.00 | 0.00 | 50 | 1021.7 |
| 20260906145506 | 58 | 223 | 0.0 | 0.9 | 0.00 | 0.00 | 0.00 | 52 | 1021.7 |
| 20260906145006 | 58 | 226 | 0.0 | 0.9 | 0.00 | 0.00 | 0.00 | 54 | 1021.7 |
| 20260906144608 | 56 | 227 | 0.0 | 0.9 | 0.00 | 0.00 | 0.00 | 56 | 1021.7 |
| 20260906144005 | 55 | 233 | 0.0 | 0.9 | 0.00 | 0.00 | 0.00 | 57 | 1021.6 |
| 20260906143505 | 54 | 233 | 0.0 | 0.9 | 0.00 | 0.00 | 0.00 | 59 | 1021.5 |
| 20260906143004 | 54 | 233 | 0.0 | 0.9 | 0.00 | 0.00 | 0.00 | 59 | 1021.5 |
| 20260906142504 | 53 | 233 | 0.0 | 0.9 | 0.00 | 0.00 | 0.00 | 61 | 1021.6 |
| 20260906142004 | 52 | 240 | 0.0 | 1.7 | 0.00 | 0.00 | 0.00 | 61 | 1021.6 |
| 20260906141503 | 52 | 240 | 0.0 | 1.7 | 0.00 | 0.00 | 0.00 | 62 | 1021.4 |
| 20260906141003 | 51 | 258 | 0.0 | 0.9 | 0.00 | 0.00 | 0.00 | 62 | 1021.4 |
| 20260906140504 | 51 | 258 | 0.0 | 0.0 | 0.00 | 0.00 | 0.00 | 62 | 1021.5 |
| 20260906140004 | 51 | 257 | 0.0 | 1.7 | 0.00 | 0.00 | 0.00 | 62 | 1021.4 |
| 20260906135502 | 51 | 258 | 0.0 | 1.7 | 0.00 | 0.00 | 0.00 | 62 | 1021.4 |
| 20260906135001 | 51 | 258 | 0.0 | 0.9 | 0.00 | 0.00 | 0.00 | 63 | 1021.3 |
| 20260906134501 | 51 | 254 | 0.0 | 0.0 | 0.00 | 0.00 | 0.00 | 64 | 1021.3 |
| 20260906134002 | 51 | 254 | 0.0 | 0.0 | 0.00 | 0.00 | 0.00 | 63 | 1021.3 |
| 20260906133501 | 51 | 254 | 0.0 | 2.6 | 0.00 | 0.00 | 0.00 | 63 | 1021.3 |
| 20260906133110 | 51 | 254 | 0.0 | 2.6 | 0.00 | 0.00 | 0.00 | 63 | 1021.3 |
| 20260906132601 | 51 | 254 | 0.9 | 2.6 | 0.00 | 0.00 | 0.00 | 64 | 1021.2 |
| 20260906132100 | 50 | 240 | 0.9 | 2.6 | 0.00 | 0.00 | 0.00 | 64 | 1021.2 |
| 20260906131609 | 50 | 246 | 0.9 | 2.6 | 0.00 | 0.00 | 0.00 | 64 | 1021.1 |
| 20260906131059 | 50 | 236 | 0.0 | 2.6 | 0.00 | 0.00 | 0.00 | 63 | 1021.0 |
| 20260906130559 | 50 | 236 | 0.0 | 1.7 | 0.00 | 0.00 | 0.00 | 63 | 1021.0 |
| 20260906125601 | 50 | 240 | 0.0 | 0.9 | 0.00 | 0.00 | 0.00 | 63 | 1021.0 |
| 20260906125059 | 50 | 240 | 0.0 | 0.9 | 0.00 | 0.00 | 0.00 | 62 | 1021.0 |
| 20260906124601 | 51 | 240 | 0.0 | 0.9 | 0.00 | 0.00 | 0.00 | 62 | 1021.1 |
| 20260906124058 | 51 | 240 | 0.0 | 1.7 | 0.00 | 0.00 | 0.00 | 62 | 1021.0 |
| 20260906123555 | 51 | 240 | 0.0 | 2.6 | 0.00 | 0.00 | 0.00 | 61 | 1021.0 |
| 20260906123104 | 52 | 255 | 0.9 | 2.6 | 0.00 | 0.00 | 0.00 | 61 | 1021.1 |
| 20260906122554 | 52 | 292 | 0.9 | 1.7 | 0.00 | 0.00 | 0.00 | 60 | 1021.1 |
| 20260906122053 | 53 | 338 | 0.0 | 0.0 | 0.00 | 0.00 | 0.00 | 59 | 1021.1 |
| 20260906121551 | 54 | 338 | 0.0 | 0.9 | 0.00 | 0.00 | 0.00 | 59 | 1021.1 |
| 20260906121050 | 54 | 338 | 0.0 | 1.7 | 0.00 | 0.00 | 0.00 | 58 | 1021.0 |
| 20260906120549 | 55 | 279 | 0.0 | 1.7 | 0.00 | 0.00 | 0.00 | 57 | 1021.1 |
| 20260906120047 | 55 | 273 | 0.0 | 3.5 | 0.00 | 0.00 | 0.00 | 57 | 1021.0 |
| 20260906115547 | 56 | 272 | 0.9 | 5.2 | 0.00 | 0.00 | 0.00 | 56 | 1021.0 |
| 20260906115046 | 56 | 280 | 2.6 | 6.1 | 0.00 | 0.00 | 0.00 | 54 | 1021.0 |
| 20260906114550 | 56 | 253 | 1.7 | 4.3 | 0.00 | 0.00 | 0.00 | 53 | 1020.9 |
| 20260906114045 | 56 | 300 | 1.7 | 4.3 | 0.00 | 0.00 | 0.00 | 52 | 1020.9 |
| 20260906113544 | 56 | 306 | 1.7 | 3.5 | 0.00 | 0.00 | 0.00 | 51 | 1021.0 |
| 20260906113044 | 56 | 260 | 1.7 | 6.1 | 0.00 | 0.00 | 0.00 | 51 | 1021.0 |
| 20260906112543 | 56 | 284 | 3.5 | 6.1 | 0.00 | 0.00 | 0.00 | 51 | 1021.0 |
| 20260906112043 | 56 | 267 | 2.6 | 7.0 | 0.00 | 0.00 | 0.00 | 51 | 1020.9 |
| 20260906111547 | 56 | 272 | 3.5 | 8.7 | 0.00 | 0.00 | 0.00 | 51 | 1020.9 |
| 20260906111043 | 56 | 271 | 4.3 | 8.7 | 0.00 | 0.00 | 0.00 | 51 | 1020.9 |
| 20260906110542 | 56 | 279 | 4.3 | 8.7 | 0.00 | 0.00 | 0.00 | 51 | 1020.8 |
| 20260906110042 | 56 | 259 | 5.2 | 8.7 | 0.00 | 0.00 | 0.00 | 51 | 1020.9 |
| 20260906105540 | 56 | 282 | 3.5 | 7.8 | 0.00 | 0.00 | 0.00 | 51 | 1020.9 |
| 20260906105040 | 56 | 270 | 4.3 | 7.8 | 0.00 | 0.00 | 0.00 | 50 | 1021.0 |
| 20260906104539 | 57 | 265 | 4.3 | 8.7 | 0.00 | 0.00 | 0.00 | 51 | 1021.0 |
| 20260906104039 | 57 | 267 | 5.2 | 8.7 | 0.00 | 0.00 | 0.00 | 51 | 1021.0 |
| 20260906103539 | 57 | 269 | 4.3 | 7.0 | 0.00 | 0.00 | 0.00 | 51 | 1020.9 |
| 20260906103040 | 57 | 269 | 4.3 | 7.8 | 0.00 | 0.00 | 0.00 | 51 | 1020.9 |
| 20260906102536 | 57 | 255 | 3.5 | 7.8 | 0.00 | 0.00 | 0.00 | 50 | 1021.0 |
| 20260906102035 | 57 | 269 | 1.7 | 6.1 | 0.00 | 0.00 | 0.00 | 48 | 1020.9 |
| 20260906101536 | 58 | 286 | 2.6 | 7.0 | 0.00 | 0.00 | 0.00 | 48 | 1020.9 |
| 20260906101033 | 58 | 299 | 2.6 | 7.8 | 0.00 | 0.00 | 0.00 | 48 | 1020.9 |
| 20260906100533 | 58 | 265 | 4.3 | 7.8 | 0.00 | 0.00 | 0.00 | 47 | 1020.9 |
| 20260906100035 | 58 | 269 | 2.6 | 7.8 | 0.00 | 0.00 | 0.00 | 48 | 1020.9 |
| 20260906095532 | 57 | 261 | 3.5 | 7.0 | 0.00 | 0.00 | 0.00 | 47 | 1020.9 |
| 20260906095032 | 58 | 258 | 2.6 | 7.8 | 0.00 | 0.00 | 0.00 | 47 | 1020.9 |
| 20260906094532 | 58 | 288 | 1.7 | 7.0 | 0.00 | 0.00 | 0.00 | 46 | 1020.9 |
| 20260906094031 | 58 | 267 | 4.3 | 7.0 | 0.00 | 0.00 | 0.00 | 46 | 1021.0 |
| 20260906093529 | 58 | 275 | 1.7 | 6.1 | 0.00 | 0.00 | 0.00 | 46 | 1021.0 |
| 20260906093028 | 58 | 249 | 3.5 | 6.1 | 0.00 | 0.00 | 0.00 | 46 | 1021.0 |
| 20260906092531 | 58 | 274 | 2.6 | 5.2 | 0.00 | 0.00 | 0.00 | 46 | 1021.0 |
| 20260906092026 | 58 | 262 | 1.7 | 6.1 | 0.00 | 0.00 | 0.00 | 45 | 1021.0 |
| 20260906091527 | 59 | 273 | 3.5 | 6.1 | 0.00 | 0.00 | 0.00 | 45 | 1020.9 |
| 20260906091025 | 58 | 286 | 2.6 | 5.2 | 0.00 | 0.00 | 0.00 | 45 | 1021.0 |
| 20260906090523 | 58 | 273 | 1.7 | 6.1 | 0.00 | 0.00 | 0.00 | 45 | 1021.0 |
| 20260906090026 | 58 | 283 | 0.9 | 7.8 | 0.00 | 0.00 | 0.00 | 45 | 1021.1 |
| 20260906085622 | 58 | 279 | 2.6 | 7.8 | 0.00 | 0.00 | 0.00 | 45 | 1021.0 |
| 20260906085021 | 59 | 277 | 3.5 | 7.0 | 0.00 | 0.00 | 0.00 | 45 | 1021.0 |
| 20260906084521 | 59 | 273 | 4.3 | 7.0 | 0.00 | 0.00 | 0.00 | 45 | 1021.1 |
| 20260906084025 | 59 | 294 | 3.5 | 7.0 | 0.00 | 0.00 | 0.00 | 45 | 1021.1 |
| 20260906083518 | 59 | 265 | 2.6 | 7.8 | 0.00 | 0.00 | 0.00 | 45 | 1021.1 |
| 20260906083018 | 59 | 281 | 3.5 | 7.8 | 0.00 | 0.00 | 0.00 | 45 | 1021.2 |
| 20260906082516 | 59 | 250 | 3.5 | 7.8 | 0.00 | 0.00 | 0.00 | 45 | 1021.2 |
| 20260906082016 | 59 | 272 | 4.3 | 7.8 | 0.00 | 0.00 | 0.00 | 45 | 1021.2 |
| 20260906081520 | 59 | 288 | 2.6 | 6.1 | 0.00 | 0.00 | 0.00 | 45 | 1021.2 |
| 20260906081016 | 59 | 259 | 3.5 | 7.0 | 0.00 | 0.00 | 0.00 | 45 | 1021.2 |
| 20260906080515 | 59 | 267 | 3.5 | 7.0 | 0.00 | 0.00 | 0.00 | 45 | 1021.2 |
| 20260906080019 | 59 | 269 | 3.5 | 7.0 | 0.00 | 0.00 | 0.00 | 45 | 1021.2 |
| 20260906075513 | 59 | 262 | 3.5 | 7.8 | 0.00 | 0.00 | 0.00 | 45 | 1021.2 |
| 20260906075013 | 59 | 261 | 4.3 | 7.8 | 0.00 | 0.00 | 0.00 | 45 | 1021.3 |
| 20260906074513 | 59 | 268 | 2.6 | 7.0 | 0.00 | 0.00 | 0.00 | 44 | 1021.4 |
| 20260906074013 | 59 | 279 | 3.5 | 7.8 | 0.00 | 0.00 | 0.00 | 44 | 1021.5 |
| 20260906073512 | 59 | 261 | 4.3 | 7.8 | 0.00 | 0.00 | 0.00 | 45 | 1021.4 |
| 20260906073015 | 59 | 223 | 2.6 | 6.1 | 0.00 | 0.00 | 0.00 | 44 | 1021.4 |
| 20260906072512 | 59 | 293 | 2.6 | 6.1 | 0.00 | 0.00 | 0.00 | 44 | 1021.3 |
| 20260906072013 | 59 | 264 | 2.6 | 5.2 | 0.00 | 0.00 | 0.00 | 45 | 1021.4 |
| 20260906071524 | 59 | 252 | 1.7 | 5.2 | 0.00 | 0.00 | 0.00 | 45 | 1021.4 |
| 20260906071011 | 59 | 252 | 1.7 | 4.3 | 0.00 | 0.00 | 0.00 | 44 | 1021.4 |
| 20260906070510 | 59 | 250 | 2.6 | 5.2 | 0.00 | 0.00 | 0.00 | 44 | 1021.4 |
| 20260906070009 | 60 | 278 | 1.7 | 4.3 | 0.00 | 0.00 | 0.00 | 44 | 1021.4 |
| 20260906065509 | 60 | 282 | 0.9 | 5.2 | 0.00 | 0.00 | 0.00 | 44 | 1021.5 |
| 20260906065009 | 60 | 280 | 0.9 | 7.8 | 0.00 | 0.00 | 0.00 | 43 | 1021.4 |
| 20260906064509 | 60 | 271 | 4.3 | 7.8 | 0.00 | 0.00 | 0.00 | 43 | 1021.3 |
| 20260906064009 | 61 | 331 | 3.5 | 9.6 | 0.00 | 0.00 | 0.00 | 43 | 1021.3 |
| 20260906063508 | 61 | 275 | 3.5 | 9.6 | 0.00 | 0.00 | 0.00 | 42 | 1021.4 |
| 20260906063007 | 61 | 273 | 2.6 | 8.7 | 0.00 | 0.00 | 0.00 | 42 | 1021.3 |
| 20260906062509 | 61 | 292 | 3.5 | 8.7 | 0.00 | 0.00 | 0.00 | 43 | 1021.3 |
| 20260906062007 | 61 | 290 | 1.7 | 6.1 | 0.00 | 0.00 | 0.00 | 42 | 1021.3 |
| 20260906061506 | 61 | 287 | 1.7 | 6.1 | 0.00 | 0.00 | 0.00 | 42 | 1021.3 |
| 20260906061006 | 61 | 313 | 1.7 | 6.1 | 0.00 | 0.00 | 0.00 | 42 | 1021.2 |
| 20260906060506 | 61 | 317 | 2.6 | 7.0 | 0.00 | 0.00 | 0.00 | 42 | 1021.3 |
| 20260906060008 | 61 | 343 | 2.6 | 7.0 | 0.00 | 0.00 | 0.00 | 41 | 1021.3 |
| 20260906055506 | 62 | 288 | 1.7 | 7.0 | 0.00 | 0.00 | 0.00 | 40 | 1021.2 |
| 20260906055007 | 62 | 307 | 2.6 | 7.0 | 0.00 | 0.00 | 0.00 | 40 | 1021.1 |
| 20260906054506 | 62 | 242 | 1.7 | 4.3 | 0.00 | 0.00 | 0.00 | 40 | 1021.2 |
| 20260906054005 | 62 | 244 | 0.9 | 7.0 | 0.00 | 0.00 | 0.00 | 40 | 1021.1 |
| 20260906053505 | 62 | 272 | 1.7 | 7.8 | 0.00 | 0.00 | 0.00 | 40 | 1021.2 |
| 20260906053004 | 62 | 276 | 2.6 | 7.8 | 0.00 | 0.00 | 0.00 | 40 | 1021.2 |
| 20260906052504 | 62 | 267 | 5.2 | 8.7 | 0.00 | 0.00 | 0.00 | 41 | 1021.1 |
| 20260906052005 | 62 | 329 | 1.7 | 8.7 | 0.00 | 0.00 | 0.00 | 40 | 1021.1 |
| 20260906051506 | 62 | 283 | 1.7 | 7.0 | 0.00 | 0.00 | 0.00 | 40 | 1021.1 |
| 20260906051004 | 62 | 340 | 3.5 | 9.6 | 0.00 | 0.00 | 0.00 | 40 | 1021.1 |
| 20260906050506 | 62 | 290 | 4.3 | 9.6 | 0.00 | 0.00 | 0.00 | 40 | 1021.1 |
| 20260906050004 | 62 | 259 | 4.3 | 7.8 | 0.00 | 0.00 | 0.00 | 40 | 1021.1 |
| 20260906045503 | 62 | 340 | 1.7 | 5.2 | 0.00 | 0.00 | 0.00 | 39 | 1021.1 |
| 20260906045003 | 62 | 293 | 0.9 | 4.3 | 0.00 | 0.00 | 0.00 | 38 | 1021.2 |
| 20260906044506 | 63 | 286 | 0.9 | 6.1 | 0.00 | 0.00 | 0.00 | 38 | 1021.1 |
| 20260906044005 | 63 | 318 | 1.7 | 11.3 | 0.00 | 0.00 | 0.00 | 37 | 1021.1 |
| 20260906043502 | 63 | 300 | 5.2 | 11.3 | 0.00 | 0.00 | 0.00 | 37 | 1021.0 |
| 20260906043002 | 63 | 293 | 3.5 | 9.6 | 0.00 | 0.00 | 0.00 | 37 | 1020.9 |
| 20260906042502 | 64 | 5 | 0.9 | 13.0 | 0.00 | 0.00 | 0.00 | 36 | 1020.9 |
| 20260906042002 | 64 | 271 | 5.2 | 13.9 | 0.00 | 0.00 | 0.00 | 35 | 1020.8 |
| 20260906041502 | 64 | 259 | 6.1 | 10.4 | 0.00 | 0.00 | 0.00 | 35 | 1020.7 |
| 20260906041002 | 64 | 275 | 4.3 | 8.7 | 0.00 | 0.00 | 0.00 | 35 | 1020.7 |
| 20260906040501 | 64 | 276 | 4.3 | 9.6 | 0.00 | 0.00 | 0.00 | 35 | 1020.7 |
| 20260906040001 | 64 | 355 | 3.5 | 9.6 | 0.00 | 0.00 | 0.00 | 35 | 1020.5 |
| 20260906035501 | 65 | 342 | 2.6 | 10.4 | 0.00 | 0.00 | 0.00 | 34 | 1020.3 |
| 20260906035001 | 65 | 285 | 5.2 | 12.2 | 0.00 | 0.00 | 0.00 | 34 | 1020.1 |
| 20260906034501 | 65 | 277 | 7.8 | 12.2 | 0.00 | 0.00 | 0.00 | 33 | 1019.9 |
| 20260906034002 | 66 | 286 | 6.1 | 13.0 | 0.00 | 0.00 | 0.00 | 32 | 1019.9 |
| 20260906033600 | 66 | 298 | 6.1 | 11.3 | 0.00 | 0.00 | 0.00 | 33 | 1019.9 |
| 20260906033100 | 66 | 336 | 4.3 | 12.2 | 0.00 | 0.00 | 0.00 | 33 | 1019.8 |
| 20260906032600 | 67 | 289 | 3.5 | 14.8 | 0.00 | 0.00 | 0.00 | 33 | 1019.8 |
| 20260906032100 | 67 | 344 | 2.6 | 16.5 | 0.00 | 0.00 | 0.00 | 32 | 1019.8 |
| 20260906031600 | 67 | 277 | 7.0 | 16.5 | 0.00 | 0.00 | 0.00 | 34 | 1019.7 |
| 20260906031059 | 67 | 257 | 8.7 | 16.5 | 0.00 | 0.00 | 0.00 | 34 | 1019.7 |
| 20260906030700 | 67 | 273 | 8.7 | 16.5 | 0.00 | 0.00 | 0.00 | 34 | 1019.6 |
| 20260906030059 | 67 | 242 | 6.1 | 20.9 | 0.00 | 0.00 | 0.00 | 29 | 1019.5 |
| 20260906025559 | 67 | 279 | 6.1 | 16.5 | 0.00 | 0.00 | 0.00 | 32 | 1019.4 |
| 20260906025059 | 67 | 297 | 8.7 | 16.5 | 0.00 | 0.00 | 0.00 | 33 | 1019.5 |
| 20260906024606 | 67 | 287 | 4.3 | 12.2 | 0.00 | 0.00 | 0.00 | 33 | 1019.4 |
| 20260906024058 | 67 | 294 | 7.8 | 10.4 | 0.00 | 0.00 | 0.00 | 33 | 1019.4 |
| 20260906023558 | 67 | 271 | 5.2 | 12.2 | 0.00 | 0.00 | 0.00 | 33 | 1019.4 |
| 20260906023058 | 67 | 252 | 5.2 | 11.3 | 0.00 | 0.00 | 0.00 | 33 | 1019.3 |
| 20260906022558 | 67 | 273 | 4.3 | 10.4 | 0.00 | 0.00 | 0.00 | 32 | 1019.3 |
| 20260906022057 | 68 | 284 | 5.2 | 12.2 | 0.00 | 0.00 | 0.00 | 32 | 1019.3 |
| 20260906021601 | 68 | 278 | 7.0 | 12.2 | 0.00 | 0.00 | 0.00 | 32 | 1019.3 |
| 20260906021100 | 68 | 298 | 6.1 | 11.3 | 0.00 | 0.00 | 0.00 | 32 | 1019.2 |
| 20260906020600 | 68 | 304 | 6.1 | 13.0 | 0.00 | 0.00 | 0.00 | 32 | 1019.2 |
| 20260906020057 | 69 | 281 | 7.0 | 13.0 | 0.00 | 0.00 | 0.00 | 32 | 1019.2 |
| 20260906015600 | 69 | 342 | 6.1 | 11.3 | 0.00 | 0.00 | 0.00 | 31 | 1019.1 |
| 20260906015056 | 69 | 254 | 5.2 | 13.0 | 0.00 | 0.00 | 0.00 | 31 | 1019.1 |
| 20260906014557 | 69 | 294 | 6.1 | 12.2 | 0.00 | 0.00 | 0.00 | 30 | 1019.1 |
| 20260906014100 | 69 | 329 | 5.2 | 13.0 | 0.00 | 0.00 | 0.00 | 30 | 1019.1 |
| 20260906013556 | 69 | 301 | 6.1 | 13.0 | 0.00 | 0.00 | 0.00 | 30 | 1019.2 |
| 20260906013055 | 69 | 346 | 6.1 | 12.2 | 0.00 | 0.00 | 0.00 | 31 | 1019.2 |
| 20260906012556 | 69 | 322 | 6.1 | 12.2 | 0.00 | 0.00 | 0.00 | 31 | 1019.1 |
| 20260906012055 | 68 | 322 | 5.2 | 12.2 | 0.00 | 0.00 | 0.00 | 32 | 1019.2 |
| 20260906011555 | 68 | 344 | 7.0 | 13.0 | 0.00 | 0.00 | 0.00 | 32 | 1019.3 |
| 20260906011056 | 68 | 231 | 7.0 | 13.0 | 0.00 | 0.00 | 0.00 | 31 | 1019.3 |
| 20260906010555 | 69 | 345 | 7.0 | 14.8 | 0.00 | 0.00 | 0.00 | 30 | 1019.2 |
| 20260906010135 | 69 | 348 | 5.2 | 14.8 | 0.00 | 0.00 | 0.00 | 30 | 1019.0 |
| 20260906005554 | 69 | 317 | 5.2 | 13.9 | 0.00 | 0.00 | 0.00 | 30 | 1018.9 |
| 20260906005057 | 69 | 324 | 7.8 | 14.8 | 0.00 | 0.00 | 0.00 | 30 | 1019.0 |
| 20260906004613 | 70 | 344 | 7.0 | 13.9 | 0.00 | 0.00 | 0.00 | 29 | 1018.9 |
| 20260906004053 | 70 | 273 | 7.0 | 13.9 | 0.00 | 0.00 | 0.00 | 29 | 1018.8 |
| 20260906003553 | 70 | 302 | 7.0 | 13.0 | 0.00 | 0.00 | 0.00 | 29 | 1018.8 |
| 20260906003053 | 71 | 321 | 7.8 | 13.0 | 0.00 | 0.00 | 0.00 | 28 | 1018.9 |
| 20260906002552 | 71 | 322 | 7.0 | 13.9 | 0.00 | 0.00 | 0.00 | 28 | 1018.8 |
| 20260906002056 | 72 | 327 | 7.0 | 13.9 | 0.00 | 0.00 | 0.00 | 27 | 1018.8 |
| 20260906001602 | 72 | 355 | 6.1 | 14.8 | 0.00 | 0.00 | 0.00 | 28 | 1018.7 |
| 20260906001052 | 73 | 319 | 7.0 | 14.8 | 0.00 | 0.00 | 0.00 | 27 | 1018.6 |
| 20260906000552 | 73 | 323 | 7.0 | 14.8 | 0.00 | 0.00 | 0.00 | 26 | 1018.6 |
| 20260906000052 | 73 | 314 | 7.8 | 14.8 | 0.00 | 0.00 | 0.00 | 26 | 1018.6 |
| 20260905235553 | 74 | 355 | 8.7 | 13.9 | 0.00 | 0.00 | 0.00 | 25 | 1018.6 |
| 20260905235051 | 75 | 315 | 7.0 | 15.6 | 0.00 | 0.00 | 0.00 | 25 | 1018.7 |
| 20260905234552 | 75 | 249 | 6.1 | 15.6 | 0.00 | 0.00 | 0.00 | 25 | 1018.7 |
| 20260905234052 | 76 | 339 | 7.0 | 15.6 | 0.00 | 0.00 | 0.00 | 26 | 1018.5 |
| 20260905233551 | 77 | 326 | 7.8 | 13.0 | 0.00 | 0.00 | 0.00 | 23 | 1018.4 |
| 20260905233051 | 78 | 324 | 4.3 | 14.8 | 0.00 | 0.00 | 0.00 | 23 | 1018.4 |
| 20260905232550 | 78 | 309 | 7.8 | 14.8 | 0.00 | 0.00 | 0.00 | 23 | 1018.5 |
| 20260905232054 | 79 | 335 | 5.2 | 8.7 | 0.00 | 0.00 | 0.00 | 22 | 1018.5 |
| 20260905231555 | 79 | 319 | 3.5 | 10.4 | 0.00 | 0.00 | 0.00 | 20 | 1018.5 |
| 20260905231048 | 79 | 292 | 5.2 | 10.4 | 0.00 | 0.00 | 0.00 | 20 | 1018.5 |
| 20260905230548 | 80 | 264 | 2.6 | 5.2 | 0.00 | 0.00 | 0.00 | 19 | 1018.6 |
| 20260905230048 | 80 | 109 | 1.7 | 4.3 | 0.00 | 0.00 | 0.00 | 19 | 1018.6 |
| 20260905225546 | 79 | 244 | 0.9 | 4.3 | 0.00 | 0.00 | 0.00 | 20 | 1018.7 |
| 20260905225047 | 79 | 360 | 1.7 | 10.4 | 0.00 | 0.00 | 0.00 | 20 | 1018.8 |
| 20260905224546 | 79 | 329 | 4.3 | 10.4 | 0.00 | 0.00 | 0.00 | 20 | 1018.9 |
| 20260905224045 | 79 | 267 | 0.9 | 7.0 | 0.00 | 0.00 | 0.00 | 20 | 1018.9 |
| 20260905223542 | 78 | 240 | 0.0 | 6.1 | 0.00 | 0.00 | 0.00 | 21 | 1019.1 |
| 20260905223050 | 77 | 128 | 2.6 | 9.6 | 0.00 | 0.00 | 0.00 | 21 | 1019.2 |
| 20260905222542 | 76 | 240 | 4.3 | 9.6 | 0.00 | 0.00 | 0.00 | 21 | 1019.2 |
| 20260905222040 | 76 | 192 | 0.9 | 9.6 | 0.00 | 0.00 | 0.00 | 22 | 1019.3 |
| 20260905221543 | 76 | 259 | 0.9 | 9.6 | 0.00 | 0.00 | 0.00 | 22 | 1019.4 |
| 20260905221040 | 76 | 211 | 3.5 | 9.6 | 0.00 | 0.00 | 0.00 | 22 | 1019.5 |
| 20260905220539 | 76 | 276 | 4.3 | 9.6 | 0.00 | 0.00 | 0.00 | 22 | 1019.4 |
| 20260905220040 | 76 | 232 | 5.2 | 9.6 | 0.00 | 0.00 | 0.00 | 22 | 1019.6 |
| 20260905215539 | 77 | 197 | 2.6 | 7.0 | 0.00 | 0.00 | 0.00 | 22 | 1019.6 |
| 20260905215038 | 77 | 349 | 0.9 | 8.7 | 0.00 | 0.00 | 0.00 | 22 | 1019.6 |
| 20260905214544 | 76 | 309 | 1.7 | 8.7 | 0.00 | 0.00 | 0.00 | 23 | 1019.6 |
| 20260905214037 | 76 | 322 | 2.6 | 7.0 | 0.00 | 0.00 | 0.00 | 22 | 1019.7 |
| 20260905213536 | 74 | 104 | 0.9 | 6.1 | 0.00 | 0.00 | 0.00 | 24 | 1019.7 |
| 20260905213036 | 75 | 177 | 3.5 | 7.0 | 0.00 | 0.00 | 0.00 | 23 | 1019.8 |
| 20260905212540 | 74 | 171 | 0.0 | 8.7 | 0.00 | 0.00 | 0.00 | 24 | 1019.8 |
| 20260905212036 | 74 | 273 | 3.5 | 10.4 | 0.00 | 0.00 | 0.00 | 24 | 1019.8 |
| 20260905211535 | 73 | 279 | 4.3 | 10.4 | 0.00 | 0.00 | 0.00 | 24 | 1019.9 |
| 20260905211035 | 73 | 281 | 6.1 | 11.3 | 0.00 | 0.00 | 0.00 | 24 | 1020.0 |
| 20260905210535 | 74 | 273 | 6.1 | 15.6 | 0.00 | 0.00 | 0.00 | 24 | 1020.0 |
| 20260905210045 | 76 | 173 | 8.7 | 15.6 | 0.00 | 0.00 | 0.00 | 23 | 1020.1 |
| 20260905205534 | 77 | 97 | 6.1 | 13.0 | 0.00 | 0.00 | 0.00 | 21 | 1019.9 |
| 20260905205033 | 77 | 135 | 7.0 | 10.4 | 0.00 | 0.00 | 0.00 | 22 | 1020.0 |
| 20260905204534 | 77 | 338 | 0.9 | 12.2 | 0.00 | 0.00 | 0.00 | 23 | 1020.0 |
| 20260905204031 | 76 | 68 | 4.3 | 12.2 | 0.00 | 0.00 | 0.00 | 23 | 1020.1 |
| 20260905203533 | 76 | 132 | 6.1 | 12.2 | 0.00 | 0.00 | 0.00 | 23 | 1020.2 |
| 20260905203031 | 76 | 107 | 7.0 | 10.4 | 0.00 | 0.00 | 0.00 | 24 | 1020.2 |
| 20260905202529 | 75 | 92 | 4.3 | 12.2 | 0.00 | 0.00 | 0.00 | 25 | 1020.4 |
| 20260905202029 | 75 | 77 | 7.0 | 12.2 | 0.00 | 0.00 | 0.00 | 24 | 1020.4 |
| 20260905201531 | 75 | 65 | 2.6 | 7.8 | 0.00 | 0.00 | 0.00 | 25 | 1020.5 |
| 20260905201029 | 76 | 180 | 4.3 | 9.6 | 0.00 | 0.00 | 0.00 | 23 | 1020.6 |
| 20260905200527 | 77 | 42 | 4.3 | 9.6 | 0.00 | 0.00 | 0.00 | 23 | 1020.6 |
| 20260905200034 | 75 | 92 | 2.6 | 13.9 | 0.00 | 0.00 | 0.00 | 25 | 1020.7 |
| 20260905195526 | 75 | 195 | 4.3 | 13.9 | 0.00 | 0.00 | 0.00 | 25 | 1020.8 |
| 20260905195025 | 75 | 78 | 3.5 | 11.3 | 0.00 | 0.00 | 0.00 | 24 | 1020.9 |
| 20260905194525 | 75 | 128 | 5.2 | 12.2 | 0.00 | 0.00 | 0.00 | 24 | 1021.0 |
| 20260905194025 | 75 | 71 | 3.5 | 10.4 | 0.00 | 0.00 | 0.00 | 25 | 1021.1 |
| 20260905193525 | 75 | 72 | 6.1 | 11.3 | 0.00 | 0.00 | 0.00 | 24 | 1021.3 |
| 20260905193024 | 76 | 86 | 4.3 | 12.2 | 0.00 | 0.00 | 0.00 | 24 | 1021.3 |
| 20260905192523 | 76 | 55 | 4.3 | 9.6 | 0.00 | 0.00 | 0.00 | 25 | 1021.3 |
| 20260905192023 | 74 | 360 | 3.5 | 9.6 | 0.00 | 0.00 | 0.00 | 26 | 1021.4 |
| 20260905191523 | 74 | 73 | 1.7 | 7.0 | 0.00 | 0.00 | 0.00 | 27 | 1021.5 |
| 20260905191023 | 74 | 158 | 1.7 | 7.0 | 0.00 | 0.00 | 0.00 | 26 | 1021.7 |
| 20260905190522 | 75 | 130 | 0.9 | 6.1 | 0.00 | 0.00 | 0.00 | 26 | 1021.8 |
| 20260905190022 | 74 | 46 | 2.6 | 8.7 | 0.00 | 0.00 | 0.00 | 27 | 1021.9 |
| 20260905185518 | 74 | 32 | 5.2 | 10.4 | 0.00 | 0.00 | 0.00 | 27 | 1021.9 |
| 20260905185017 | 73 | 74 | 4.3 | 10.4 | 0.00 | 0.00 | 0.00 | 28 | 1022.0 |
| 20260905184531 | 71 | 24 | 3.5 | 8.7 | 0.00 | 0.00 | 0.00 | 29 | 1022.1 |
| 20260905184017 | 71 | 52 | 2.6 | 8.7 | 0.00 | 0.00 | 0.00 | 29 | 1022.2 |
| 20260905183517 | 72 | 146 | 0.9 | 7.8 | 0.00 | 0.00 | 0.00 | 28 | 1022.2 |
| 20260905183021 | 72 | 57 | 3.5 | 8.7 | 0.00 | 0.00 | 0.00 | 27 | 1022.2 |
| 20260905182517 | 72 | 86 | 3.5 | 8.7 | 0.00 | 0.00 | 0.00 | 27 | 1022.3 |
| 20260905182017 | 72 | 355 | 2.6 | 7.8 | 0.00 | 0.00 | 0.00 | 27 | 1022.4 |
| 20260905181517 | 72 | 37 | 2.6 | 5.2 | 0.00 | 0.00 | 0.00 | 28 | 1022.5 |
| 20260905181014 | 70 | 49 | 0.0 | 5.2 | 0.00 | 0.00 | 0.00 | 30 | 1022.6 |
| 20260905180514 | 70 | 93 | 2.6 | 5.2 | 0.00 | 0.00 | 0.00 | 30 | 1022.6 |
| 20260905180014 | 70 | 141 | 1.7 | 7.0 | 0.00 | 0.00 | 0.00 | 30 | 1022.7 |
| 20260905175516 | 70 | 94 | 2.6 | 7.0 | 0.00 | 0.00 | 0.00 | 30 | 1022.7 |
| 20260905175012 | 70 | 43 | 1.7 | 4.3 | 0.00 | 0.00 | 0.00 | 30 | 1022.7 |
| 20260905174513 | 69 | 32 | 0.9 | 4.3 | 0.00 | 0.00 | 0.00 | 31 | 1022.9 |
| 20260905174112 | 69 | 61 | 1.7 | 7.0 | 0.00 | 0.00 | 0.00 | 32 | 1022.9 |
| 20260905173511 | 68 | 49 | 1.7 | 7.0 | 0.00 | 0.00 | 0.00 | 32 | 1023.0 |
| 20260905173016 | 69 | 155 | 2.6 | 4.3 | 0.00 | 0.00 | 0.00 | 32 | 1023.0 |